Tracking 28790 objects as of 19-Apr-2024
HD Live streaming from Space Station
objects crossing your sky now

COSMOS 1275 DEB

Track COSMOS 1275 DEB now!
10-day predictions


NORAD ID: 17642
Int'l Code: 1981-053LQ
Perigee: 763.7 km
Apogee: 820.0 km
Inclination: 82.9 °
Period: 100.6 minutes
Semi major axis: 7162 km
RCS: 0.0092 m2 (small)
Launch date: June 4, 1981
Source: Commonwealth of Independent States (former USSR) (CIS)
Launch site: PLESETSK MISSILE AND SPACE COMPLEX (PKMTR)

Note: This is SATELLITE DEBRIS
Your satellite tracking list
Your tracking list is empty




NASA's NSSDC Master Catalog

Two Line Element Set (TLE):
1 17642U 81053LM  24109.80244953  .00012226  00000-0  44986-2 0  9994
2 17642  82.8673  48.2845 0039320  35.4065 324.9721 14.32108773 23310
Source of the keplerian elements: AFSPC